EW5444 Weather Reports


time (UTC)temp
C
wind
direction
speed
KPH
gust
KPH
rain 1hr
cm
rain 24hr
cm
rain mn
cm
humidity
%
barometer
mb
20260506235006 13 101 0.0 3.2 0.00 0.00 0.00 93 1012.7
20260506234006 13 114 1.6 3.2 0.00 0.00 0.00 93 1012.7
20260506233006 13 103 0.0 1.6 0.00 0.00 0.00 92 1012.6
20260506232006 13 138 3.2 6.4 0.00 0.00 0.00 92 1012.8
20260506231006 13 135 4.8 11.3 0.00 0.00 0.00 92 1013.0
20260506230007 13 120 1.6 6.4 0.00 0.00 0.00 92 1012.7
20260506225007 13 26 0.0 3.2 0.00 0.00 0.00 91 1012.6
20260506224006 13 96 3.2 4.8 0.00 0.00 0.00 91 1012.7
20260506223006 13 164 1.6 14.5 0.00 0.00 0.00 91 1012.9
20260506222006 13 176 4.8 8.0 0.00 0.00 0.00 90 1012.8
20260506221006 13 169 1.6 4.8 0.00 0.00 0.00 90 1012.5
20260506220006 13 215 4.8 8.0 0.00 0.00 0.00 89 1012.6
20260506215007 13 187 3.2 9.7 0.00 0.00 3.89 88 1012.5
20260506214007 13 171 8.0 12.9 0.00 0.00 3.89 88 1012.5
20260506213007 14 187 12.9 16.1 0.00 0.00 3.89 87 1012.7
20260506212006 14 208 3.2 8.0 0.00 0.00 3.89 87 1012.5
20260506211007 15 166 3.2 11.3 0.00 0.00 3.89 87 1012.5
20260506210006 15 191 3.2 8.0 0.00 0.00 3.89 87 1012.4
20260506205006 15 218 0.0 3.2 0.00 0.00 3.89 86 1012.3
20260506204006 15 156 3.2 6.4 0.00 0.00 3.89 86 1012.3
20260506203006 15 162 6.4 11.3 0.00 0.00 3.89 86 1012.2
20260506202007 15 145 4.8 11.3 0.00 0.00 3.89 87 1012.1
20260506201006 15 180 8.0 11.3 0.00 0.00 3.89 86 1012.1
20260506200007 16 179 8.0 12.9 0.00 0.00 3.89 84 1011.8
20260506195007 16 148 0.0 0.0 0.00 0.00 3.89 83 1011.6
20260506194006 16 166 0.0 0.0 0.00 0.00 3.89 84 1011.4
20260506193007 16 178 0.0 0.0 0.00 0.00 3.89 85 1011.3
20260506192006 16 158 0.0 0.0 0.00 0.00 3.89 84 1011.2
20260506191006 16 218 0.0 8.0 0.00 0.00 3.89 84 1011.0
20260506190007 16 261 0.0 9.7 0.00 0.00 3.89 83 1010.8
20260506185006 17 204 4.8 9.7 0.00 0.00 3.89 83 1010.8
20260506184008 17 203 4.8 14.5 0.00 0.00 3.89 82 1010.8
20260506183007 17 274 3.2 11.3 0.00 0.00 3.89 82 1010.7
20260506182006 17 229 4.8 11.3 0.00 0.00 3.89 81 1010.6
20260506181006 17 255 3.2 8.0 0.00 0.00 3.89 82 1010.5
20260506180007 17 266 9.7 16.1 0.00 0.00 3.89 80 1010.4
20260506175007 18 238 4.8 11.3 0.00 0.00 3.89 79 1010.4
20260506174007 18 229 0.0 11.3 0.00 0.00 3.89 79 1010.3
20260506173007 18 258 6.4 14.5 0.00 0.00 3.89 78 1010.1
20260506172006 18 287 4.8 11.3 0.00 0.00 3.89 78 1010.1
20260506171007 18 271 11.3 20.9 0.00 0.00 3.89 76 1009.9
20260506170007 18 255 4.8 24.1 0.00 0.00 3.89 73 1009.8
20260506165008 18 241 6.4 22.5 0.00 0.00 3.89 72 1009.9
20260506164007 18 135 3.2 29.0 0.00 0.00 3.89 70 1009.9
20260506163006 18 292 16.1 30.6 0.00 0.00 3.89 68 1009.9
20260506162007 19 295 22.5 29.0 0.00 0.00 3.89 69 1009.9
20260506161007 18 258 9.7 29.0 0.00 0.00 3.89 70 1009.7
20260506160007 19 264 16.1 29.0 0.00 0.00 3.89 74 1009.8
20260506155007 18 287 14.5 29.0 0.00 0.00 3.89 76 1009.8
20260506154007 18 270 20.9 30.6 0.00 0.00 3.89 79 1009.8
20260506153007 18 289 29.0 35.4 0.00 0.00 3.89 81 1009.7
20260506152007 18 283 19.3 32.2 0.00 0.00 3.89 86 1009.7
20260506151008 17 288 19.3 30.6 0.00 0.00 3.89 90 1009.8
20260506150008 18 284 29.0 33.8 0.00 0.00 3.84 89 1009.8
20260506145007 18 281 19.3 33.8 0.00 0.00 3.84 82 1009.8
20260506144007 19 296 16.1 29.0 0.00 0.00 3.84 83 1009.7
20260506143007 20 278 24.1 35.4 0.00 0.00 3.84 80 1009.5
20260506142007 20 295 20.9 29.0 0.00 0.00 3.84 78 1009.5
20260506141007 20 266 17.7 33.8 0.00 0.00 3.84 79 1009.5
20260506140007 20 307 4.8 27.4 0.00 0.00 3.84 83 1009.4
20260506135007 19 288 17.7 20.9 0.00 0.00 3.84 83 1009.6
20260506134007 18 288 17.7 22.5 0.00 0.00 3.84 83 1009.8
20260506133007 18 293 19.3 27.4 0.00 0.00 3.84 79 1009.9
20260506132007 18 334 17.7 32.2 0.00 0.00 3.84 77 1009.9
20260506131007 18 207 16.1 35.4 0.00 0.00 3.84 76 1010.1
20260506130007 18 327 11.3 30.6 0.00 0.00 3.84 76 1010.3
20260506125007 18 308 9.7 43.5 0.00 0.00 3.84 71 1010.3
20260506124007 21 278 33.8 41.8 0.00 0.00 3.84 71 1010.1
20260506123008 21 291 20.9 33.8 0.00 0.00 3.84 76 1009.9
20260506122007 21 268 14.5 30.6 0.00 0.00 3.84 80 1009.8
20260506121007 20 242 19.3 25.7 0.00 0.00 3.84 79 1009.8
20260506120007 20 215 12.9 27.4 0.00 0.00 3.84 80 1009.6
20260506115007 20 218 24.1 29.0 0.00 0.00 3.84 79 1009.7
20260506114008 20 194 14.5 25.7 0.00 0.00 3.84 78 1009.7
20260506113007 20 210 8.0 27.4 0.00 0.00 3.84 79 1009.7
20260506112007 20 181 14.5 29.0 0.00 0.00 3.84 80 1009.8
20260506111007 20 218 12.9 27.4 0.00 0.00 3.84 83 1009.8
20260506110007 19 218 20.9 29.0 0.00 0.00 3.84 84 1009.9
20260506105007 19 212 9.7 30.6 0.00 0.00 3.84 83 1010.0
20260506104007 19 212 19.3 32.2 0.00 0.00 3.84 81 1010.0
20260506103007 20 242 9.7 33.8 0.00 0.00 3.84 80 1010.1
20260506102007 20 205 17.7 33.8 0.00 0.00 3.84 78 1010.1
20260506101007 20 198 17.7 38.6 0.00 0.00 3.84 79 1010.1
20260506100008 20 250 30.6 37.0 0.00 0.00 3.84 79 1010.0
20260506095007 20 194 16.1 25.7 0.00 0.00 3.84 80 1010.0
20260506094007 19 190 20.9 30.6 0.00 0.00 3.84 81 1010.0
20260506093008 19 224 20.9 30.6 0.00 0.00 3.84 82 1010.0
20260506092007 18 229 22.5 38.6 0.00 0.00 3.84 83 1009.9
20260506091007 18 223 19.3 33.8 0.00 0.00 3.84 84 1009.9
20260506090008 18 246 17.7 33.8 0.00 0.00 3.84 85 1010.0
20260506085007 18 219 29.0 37.0 0.00 0.00 3.84 86 1010.0
20260506084007 18 163 17.7 33.8 0.00 0.00 3.84 92 1009.8
20260506083007 17 260 16.1 25.7 0.00 0.00 3.84 94 1009.8
20260506082007 17 215 17.7 24.1 0.00 0.00 3.84 94 1010.0
20260506081008 16 224 9.7 27.4 0.00 0.00 3.84 94 1010.1
20260506073007 16 276 0.0 8.0 0.00 0.00 3.81 94 1010.0
20260506072007 16 138 0.0 4.8 0.00 0.00 3.81 94 1010.0
20260506071007 16 153 0.0 6.4 0.00 0.00 3.81 94 1009.9
20260506062007 15 90 0.0 0.0 0.00 0.00 3.81 94 1009.8
20260506061007 15 90 0.0 0.0 0.00 0.00 3.81 94 1009.8
20260506051008 14 288 0.0 4.8 0.00 0.00 3.78 94 1009.8
20260506045008 14 288 0.0 4.8 0.00 0.00 3.78 94 1009.5
20260506044008 14 288 0.0 4.8 0.00 0.00 3.78 94 1009.4
20260506043007 14 288 0.0 4.8 0.00 0.00 3.78 94 1009.5
20260506042007 14 288 0.0 4.8 0.00 0.00 3.78 94 1009.6
20260506041007 14 288 0.0 4.8 0.00 0.00 3.78 94 1009.7
20260506040007 14 288 0.0 4.8 0.00 0.00 3.78 94 1009.9
20260506035008 14 288 0.0 4.8 0.00 0.00 3.78 94 1010.1
20260506034007 14 288 0.0 4.8 0.00 0.00 3.78 94 1010.2
20260506033007 14 288 0.0 4.8 0.00 0.00 3.78 94 1010.2
20260506032008 14 288 0.0 4.8 0.00 0.00 3.78 94 1010.2
20260506031007 14 288 0.0 4.8 0.00 0.00 3.78 94 1010.3
20260506030008 15 288 0.0 4.8 0.00 0.00 3.76 94 1010.4
20260506025007 15 105 1.6 6.4 0.00 0.00 3.71 94 1010.3
20260506024008 15 75 8.0 12.9 0.00 0.00 3.40 94 1010.4
20260506023008 14 27 3.2 6.4 0.00 0.00 2.90 94 1010.3
20260506022007 14 347 1.6 12.9 0.00 0.00 2.39 94 1010.3
20260506021007 14 64 3.2 9.7 0.00 0.00 1.75 94 1010.5
20260506020007 14 43 1.6 8.0 0.00 0.00 1.14 94 1010.5
20260506015008 14 27 1.6 6.4 0.00 0.00 0.94 94 1010.4
20260506014007 13 5 3.2 8.0 0.00 0.00 0.81 94 1010.5
20260506013007 13 342 6.4 9.7 0.00 0.00 0.76 94 1010.7
20260506012007 13 75 4.8 9.7 0.00 0.00 0.51 93 1010.8
20260506011007 13 39 3.2 11.3 0.00 0.00 0.23 93 1010.6
20260506010007 13 52 11.3 12.9 0.00 0.00 0.18 92 1010.7
20260506005008 14 355 6.4 11.3 0.00 0.00 0.18 92 1011.0
20260506004007 14 44 8.0 14.5 0.00 0.00 0.18 92 1011.0
20260506003007 14 63 9.7 16.1 0.00 0.00 0.18 92 1011.2
20260506002007 14 43 3.2 12.9 0.00 0.00 0.18 92 1011.5
20260506001008 15 58 11.3 11.3 0.00 0.00 0.18 93 1011.5
20260506000008 15 26 0.0 6.4 0.00 0.00 0.18 93 1011.5